Time,TemperatureF,DewpointF,PressureIn,WindDirection,WindDirectionDegrees,WindSpeedMPH,WindSpeedGustMPH,Humidity,HourlyPrecipIn,Conditions,Clouds,dailyrainin,SoftwareType,DateUTC
2013-08-26 00:00:00,64.0,53.7,30.25,WNW,287,0.0,5.8,69,0.00,,,0.00,VWS V14.01,2013-08-26 04:00:00,
2013-08-26 00:01:00,64.0,53.7,30.25,WNW,285,0.0,3.1,69,0.00,,,0.00,VWS V14.01,2013-08-26 04:01:00,
2013-08-26 00:02:00,64.0,53.7,30.25,WNW,285,0.0,3.1,69,0.00,,,0.00,VWS V14.01,2013-08-26 04:02:00,
2013-08-26 00:03:00,64.0,53.7,30.25,West,275,2.7,3.1,69,0.00,,,0.00,VWS V14.01,2013-08-26 04:03:00,
2013-08-26 00:05:00,64.0,53.7,30.25,West,275,3.1,3.1,69,0.00,,,0.00,VWS V14.01,2013-08-26 04:05:00,
2013-08-26 00:08:00,63.9,53.5,30.25,West,275,0.0,3.1,69,0.00,,,0.00,VWS V14.01,2013-08-26 04:08:00,
2013-08-26 00:10:00,63.9,53.5,30.25,WNW,287,2.2,4.5,69,0.00,,,0.00,VWS V14.01,2013-08-26 04:10:00,
2013-08-26 00:13:00,63.9,53.5,30.25,WNW,284,2.7,3.6,69,0.00,,,0.00,VWS V14.01,2013-08-26 04:13:00,
2013-08-26 00:15:00,63.9,53.5,30.25,West,279,3.6,3.6,69,0.00,,,0.00,VWS V14.01,2013-08-26 04:15:00,
2013-08-26 00:18:00,64.0,53.7,30.25,West,277,4.0,5.8,69,0.00,,,0.00,VWS V14.01,2013-08-26 04:18:00,
2013-08-26 00:20:00,64.0,53.7,30.25,West,277,0.0,5.8,69,0.00,,,0.00,VWS V14.01,2013-08-26 04:20:00,
2013-08-26 00:23:00,64.2,53.5,30.25,WNW,287,5.8,5.8,68,0.00,,,0.00,VWS V14.01,2013-08-26 04:23:00,
2013-08-26 00:25:00,64.2,53.5,30.25,West,272,3.1,5.8,68,0.00,,,0.00,VWS V14.01,2013-08-26 04:25:00,
2013-08-26 00:28:00,64.2,53.5,30.22,West,276,5.4,5.4,68,0.00,,,0.00,VWS V14.01,2013-08-26 04:28:00,
2013-08-26 00:30:00,64.2,53.5,30.22,West,276,2.7,5.4,68,0.00,,,0.00,VWS V14.01,2013-08-26 04:30:00,
2013-08-26 00:33:00,64.4,53.2,30.22,West,265,4.0,8.1,67,0.00,,,0.00,VWS V14.01,2013-08-26 04:33:00,
2013-08-26 00:35:00,64.4,53.2,30.22,West,265,4.0,8.1,67,0.00,,,0.00,VWS V14.01,2013-08-26 04:35:00,
2013-08-26 00:38:00,64.6,53.0,30.22,WSW,248,0.0,6.3,66,0.00,,,0.00,VWS V14.01,2013-08-26 04:38:00,
2013-08-26 00:40:00,64.6,53.0,30.22,WSW,248,0.0,6.3,66,0.00,,,0.00,VWS V14.01,2013-08-26 04:40:00,
2013-08-26 00:43:00,64.6,53.0,30.22,WSW,252,2.7,5.8,66,0.00,,,0.00,VWS V14.01,2013-08-26 04:43:00,
2013-08-26 00:45:00,64.6,53.0,30.22,WSW,252,2.7,5.8,66,0.00,,,0.00,VWS V14.01,2013-08-26 04:45:00,
2013-08-26 00:49:00,64.6,52.6,30.22,WSW,247,2.7,4.0,65,0.00,,,0.00,VWS V14.01,2013-08-26 04:49:00,
2013-08-26 00:50:00,64.6,52.6,30.22,WSW,248,4.0,8.7,65,0.00,,,0.00,VWS V14.01,2013-08-26 04:50:00,
2013-08-26 00:53:00,64.6,52.6,30.22,WSW,258,5.4,5.4,65,0.00,,,0.00,VWS V14.01,2013-08-26 04:53:00,
2013-08-26 00:55:00,64.6,52.6,30.22,West,274,5.4,5.4,65,0.00,,,0.00,VWS V14.01,2013-08-26 04:55:00,
2013-08-26 00:58:00,64.6,52.6,30.22,WSW,257,2.7,2.7,65,0.00,,,0.00,VWS V14.01,2013-08-26 04:58:00,
2013-08-26 01:00:00,64.6,52.6,30.22,WSW,257,2.7,6.3,65,0.00,,,0.00,VWS V14.01,2013-08-26 05:00:00,
2013-08-26 01:04:00,64.6,52.6,30.22,West,265,0.0,0.0,65,0.00,,,0.00,VWS V14.01,2013-08-26 05:04:00,
2013-08-26 01:05:00,64.6,52.6,30.22,West,265,0.0,6.3,65,0.00,,,0.00,VWS V14.01,2013-08-26 05:05:00,
2013-08-26 01:09:00,64.4,52.4,30.22,West,265,0.0,0.0,65,0.00,,,0.00,VWS V14.01,2013-08-26 05:09:00,
2013-08-26 01:10:00,64.4,52.4,30.22,West,265,0.0,0.0,65,0.00,,,0.00,VWS V14.01,2013-08-26 05:10:00,
2013-08-26 01:14:00,64.4,52.4,30.22,West,259,3.6,3.6,65,0.00,,,0.00,VWS V14.01,2013-08-26 05:14:00,
2013-08-26 01:15:00,64.4,52.4,30.22,West,259,2.2,3.6,65,0.00,,,0.00,VWS V14.01,2013-08-26 05:15:00,
2013-08-26 01:19:00,64.4,52.4,30.22,WSW,246,0.0,4.0,65,0.00,,,0.00,VWS V14.01,2013-08-26 05:19:00,
2013-08-26 01:20:00,64.4,52.4,30.22,WSW,246,0.0,4.0,65,0.00,,,0.00,VWS V14.01,2013-08-26 05:20:00,
2013-08-26 01:24:00,64.2,52.6,30.22,West,261,4.0,4.0,66,0.00,,,0.00,VWS V14.01,2013-08-26 05:24:00,
2013-08-26 01:25:00,64.2,52.6,30.22,West,261,3.1,4.0,66,0.00,,,0.00,VWS V14.01,2013-08-26 05:25:00,
2013-08-26 01:29:00,64.2,52.6,30.22,West,275,0.0,6.3,66,0.00,,,0.00,VWS V14.01,2013-08-26 05:29:00,
2013-08-26 01:30:00,64.2,52.6,30.22,West,275,0.0,6.3,66,0.00,,,0.00,VWS V14.01,2013-08-26 05:30:00,
2013-08-26 01:34:00,64.2,52.6,30.22,West,261,2.7,4.0,66,0.00,,,0.00,VWS V14.01,2013-08-26 05:34:00,
2013-08-26 01:35:00,64.2,52.6,30.22,West,261,2.7,4.0,66,0.00,,,0.00,VWS V14.01,2013-08-26 05:35:00,
2013-08-26 01:39:00,64.2,52.6,30.22,West,278,0.0,4.0,66,0.00,,,0.00,VWS V14.01,2013-08-26 05:39:00,
2013-08-26 01:40:00,64.2,52.6,30.22,West,278,0.0,4.0,66,0.00,,,0.00,VWS V14.01,2013-08-26 05:40:00,
2013-08-26 01:44:00,64.0,52.9,30.22,WNW,290,0.0,0.0,67,0.00,,,0.00,VWS V14.01,2013-08-26 05:44:00,
2013-08-26 01:45:00,64.0,52.9,30.22,WNW,290,0.0,4.0,67,0.00,,,0.00,VWS V14.01,2013-08-26 05:45:00,
2013-08-26 01:49:00,64.0,52.9,30.22,WNW,295,3.1,3.1,67,0.00,,,0.00,VWS V14.01,2013-08-26 05:49:00,
2013-08-26 01:50:00,63.9,52.7,30.22,WNW,295,2.2,4.0,67,0.00,,,0.00,VWS V14.01,2013-08-26 05:50:00,
2013-08-26 01:54:00,64.0,52.9,30.22,WSW,248,3.1,3.1,67,0.00,,,0.00,VWS V14.01,2013-08-26 05:54:00,
2013-08-26 01:55:00,64.0,52.9,30.22,SSW,209,2.2,4.0,67,0.00,,,0.00,VWS V14.01,2013-08-26 05:55:00,
2013-08-26 02:00:00,64.0,52.9,30.22,West,274,0.0,0.0,67,0.00,,,0.00,VWS V14.01,2013-08-26 06:00:00,
2013-08-26 02:05:00,63.9,52.7,30.22,West,276,0.0,0.0,67,0.00,,,0.00,VWS V14.01,2013-08-26 06:05:00,
2013-08-26 02:10:00,63.9,53.1,30.22,West,272,0.0,0.0,68,0.00,,,0.00,VWS V14.01,2013-08-26 06:10:00,
2013-08-26 02:15:00,63.9,53.1,30.22,West,272,0.0,2.2,68,0.00,,,0.00,VWS V14.01,2013-08-26 06:15:00,
2013-08-26 02:20:00,63.9,53.1,30.22,West,272,0.0,2.7,68,0.00,,,0.00,VWS V14.01,2013-08-26 06:20:00,
2013-08-26 02:25:00,63.7,52.9,30.22,West,271,0.0,0.0,68,0.00,,,0.00,VWS V14.01,2013-08-26 06:25:00,
2013-08-26 02:30:00,63.5,53.2,30.22,West,272,0.0,0.0,69,0.00,,,0.00,VWS V14.01,2013-08-26 06:30:00,
2013-08-26 02:35:00,63.5,53.5,30.22,West,272,0.0,0.0,70,0.00,,,0.00,VWS V14.01,2013-08-26 06:35:00,
2013-08-26 02:40:00,63.5,53.5,30.22,WNW,285,2.2,4.0,70,0.00,,,0.00,VWS V14.01,2013-08-26 06:40:00,
2013-08-26 02:45:00,63.3,53.4,30.22,WNW,285,0.0,0.0,70,0.00,,,0.00,VWS V14.01,2013-08-26 06:45:00,
2013-08-26 02:50:00,63.3,53.4,30.22,WNW,285,0.0,0.0,70,0.00,,,0.00,VWS V14.01,2013-08-26 06:50:00,
2013-08-26 02:55:00,63.3,53.4,30.22,West,271,0.0,0.0,70,0.00,,,0.00,VWS V14.01,2013-08-26 06:55:00,
2013-08-26 03:00:00,63.3,53.4,30.19,WSW,258,0.0,0.0,70,0.00,,,0.00,VWS V14.01,2013-08-26 07:00:00,
2013-08-26 03:05:00,63.3,53.4,30.19,West,273,2.2,3.1,70,0.00,,,0.00,VWS V14.01,2013-08-26 07:05:00,
2013-08-26 03:10:00,63.5,53.5,30.19,WNW,291,2.2,2.7,70,0.00,,,0.00,VWS V14.01,2013-08-26 07:10:00,
2013-08-26 03:15:00,63.5,53.5,30.19,West,276,2.7,5.8,70,0.00,,,0.00,VWS V14.01,2013-08-26 07:15:00,
2013-08-26 03:16:00,63.5,53.5,30.19,West,275,0.0,2.7,70,0.00,,,0.00,VWS V14.01,2013-08-26 07:16:00,
2013-08-26 03:20:00,63.5,53.5,30.19,WNW,285,0.0,3.6,70,0.00,,,0.00,VWS V14.01,2013-08-26 07:20:00,
2013-08-26 03:21:00,63.5,53.5,30.19,West,279,3.1,3.1,70,0.00,,,0.00,VWS V14.01,2013-08-26 07:21:00,
2013-08-26 03:25:00,63.5,53.2,30.19,West,277,0.0,4.0,69,0.00,,,0.00,VWS V14.01,2013-08-26 07:25:00,
2013-08-26 03:26:00,63.5,53.2,30.19,West,277,0.0,0.0,69,0.00,,,0.00,VWS V14.01,2013-08-26 07:26:00,
2013-08-26 03:30:00,63.5,53.2,30.19,West,277,0.0,2.7,69,0.00,,,0.00,VWS V14.01,2013-08-26 07:30:00,
2013-08-26 03:31:00,63.5,53.2,30.19,West,277,0.0,0.0,69,0.00,,,0.00,VWS V14.01,2013-08-26 07:31:00,
2013-08-26 03:35:00,63.5,53.2,30.19,West,277,2.7,2.7,69,0.00,,,0.00,VWS V14.01,2013-08-26 07:35:00,
2013-08-26 03:36:00,63.5,53.2,30.19,West,277,2.2,3.1,69,0.00,,,0.00,VWS V14.01,2013-08-26 07:36:00,
2013-08-26 03:40:00,63.5,53.2,30.19,West,277,2.7,3.1,69,0.00,,,0.00,VWS V14.01,2013-08-26 07:40:00,
2013-08-26 03:41:00,63.5,53.2,30.19,West,277,0.0,3.1,69,0.00,,,0.00,VWS V14.01,2013-08-26 07:41:00,
2013-08-26 03:45:00,63.5,53.2,30.19,West,277,2.2,3.1,69,0.00,,,0.00,VWS V14.01,2013-08-26 07:45:00,
2013-08-26 03:46:00,63.5,53.2,30.19,West,274,2.2,3.6,69,0.00,,,0.00,VWS V14.01,2013-08-26 07:46:00,
2013-08-26 03:50:00,63.5,53.2,30.19,West,274,2.2,3.6,69,0.00,,,0.00,VWS V14.01,2013-08-26 07:50:00,
2013-08-26 03:51:00,63.3,53.0,30.19,West,271,2.7,3.1,69,0.00,,,0.00,VWS V14.01,2013-08-26 07:51:00,
2013-08-26 03:55:00,63.3,53.0,30.19,West,271,0.0,3.1,69,0.00,,,0.00,VWS V14.01,2013-08-26 07:55:00,
2013-08-26 03:56:00,63.5,53.2,30.19,WSW,251,2.7,2.7,69,0.00,,,0.00,VWS V14.01,2013-08-26 07:56:00,
2013-08-26 04:00:00,63.5,53.2,30.19,WSW,251,0.0,3.1,69,0.00,,,0.00,VWS V14.01,2013-08-26 08:00:00,
2013-08-26 04:02:00,63.3,53.0,30.19,West,271,2.7,3.6,69,0.00,,,0.00,VWS V14.01,2013-08-26 08:02:00,
2013-08-26 04:05:00,63.3,53.0,30.19,West,271,0.0,3.6,69,0.00,,,0.00,VWS V14.01,2013-08-26 08:05:00,
2013-08-26 04:07:00,63.5,53.2,30.19,West,279,0.0,3.6,69,0.00,,,0.00,VWS V14.01,2013-08-26 08:07:00,
2013-08-26 04:10:00,63.5,52.8,30.19,West,274,2.2,4.0,68,0.00,,,0.00,VWS V14.01,2013-08-26 08:10:00,
2013-08-26 04:12:00,63.5,52.8,30.19,WNW,284,2.2,4.0,68,0.00,,,0.00,VWS V14.01,2013-08-26 08:12:00,
2013-08-26 04:15:00,63.5,52.8,30.19,WNW,284,2.7,4.0,68,0.00,,,0.00,VWS V14.01,2013-08-26 08:15:00,
2013-08-26 04:17:00,63.5,52.8,30.19,WNW,285,4.0,4.0,68,0.00,,,0.00,VWS V14.01,2013-08-26 08:17:00,
2013-08-26 04:20:00,63.5,52.8,30.19,West,268,0.0,4.0,68,0.00,,,0.00,VWS V14.01,2013-08-26 08:20:00,
2013-08-26 04:22:00,63.5,52.4,30.19,WSW,247,2.7,4.9,67,0.00,,,0.00,VWS V14.01,2013-08-26 08:22:00,
2013-08-26 04:25:00,63.5,52.4,30.19,West,270,3.6,4.9,67,0.00,,,0.00,VWS V14.01,2013-08-26 08:25:00,
2013-08-26 04:27:00,63.5,52.4,30.19,WNW,284,3.6,5.4,67,0.00,,,0.00,VWS V14.01,2013-08-26 08:27:00,
2013-08-26 04:30:00,63.5,52.4,30.19,WNW,287,3.6,5.4,67,0.00,,,0.00,VWS V14.01,2013-08-26 08:30:00,
2013-08-26 04:33:00,63.5,52.4,30.19,WNW,284,4.0,4.0,67,0.00,,,0.00,VWS V14.01,2013-08-26 08:33:00,
2013-08-26 04:35:00,63.5,52.4,30.19,West,270,3.1,6.3,67,0.00,,,0.00,VWS V14.01,2013-08-26 08:35:00,
2013-08-26 04:38:00,63.5,52.4,30.19,West,265,4.0,6.3,67,0.00,,,0.00,VWS V14.01,2013-08-26 08:38:00,
2013-08-26 04:40:00,63.5,52.4,30.19,WSW,255,2.7,6.3,67,0.00,,,0.00,VWS V14.01,2013-08-26 08:40:00,
2013-08-26 04:43:00,63.5,52.4,30.19,WSW,240,0.0,3.1,67,0.00,,,0.00,VWS V14.01,2013-08-26 08:43:00,
2013-08-26 04:45:00,63.5,52.4,30.19,WSW,249,3.1,6.3,67,0.00,,,0.00,VWS V14.01,2013-08-26 08:45:00,
2013-08-26 04:48:00,63.7,52.5,30.19,West,278,2.2,4.0,67,0.00,,,0.00,VWS V14.01,2013-08-26 08:48:00,
2013-08-26 04:50:00,63.7,52.5,30.19,WSW,251,3.1,4.0,67,0.00,,,0.00,VWS V14.01,2013-08-26 08:50:00,
2013-08-26 04:53:00,63.7,52.1,30.19,WSW,254,3.1,7.2,66,0.00,,,0.00,VWS V14.01,2013-08-26 08:53:00,
2013-08-26 04:55:00,63.7,52.1,30.19,WNW,291,0.0,7.2,66,0.00,,,0.00,VWS V14.01,2013-08-26 08:55:00,
2013-08-26 04:58:00,63.7,52.1,30.19,West,267,3.1,3.6,66,0.00,,,0.00,VWS V14.01,2013-08-26 08:58:00,
2013-08-26 05:00:00,63.7,52.1,30.19,West,266,3.6,3.6,66,0.00,,,0.00,VWS V14.01,2013-08-26 09:00:00,
2013-08-26 05:03:00,63.7,52.1,30.19,West,269,3.6,4.9,66,0.00,,,0.00,VWS V14.01,2013-08-26 09:03:00,
2013-08-26 05:05:00,63.7,52.1,30.19,West,265,2.7,5.4,66,0.00,,,0.00,VWS V14.01,2013-08-26 09:05:00,
2013-08-26 05:08:00,63.7,52.1,30.19,WSW,254,3.1,6.7,66,0.00,,,0.00,VWS V14.01,2013-08-26 09:08:00,
2013-08-26 05:10:00,63.7,52.1,30.19,West,266,4.9,6.7,66,0.00,,,0.00,VWS V14.01,2013-08-26 09:10:00,
2013-08-26 05:13:00,63.7,52.1,30.19,West,268,0.0,6.3,66,0.00,,,0.00,VWS V14.01,2013-08-26 09:13:00,
2013-08-26 05:15:00,63.7,52.1,30.19,West,274,2.7,6.3,66,0.00,,,0.00,VWS V14.01,2013-08-26 09:15:00,
2013-08-26 05:18:00,63.7,52.1,30.19,WSW,258,3.6,6.3,66,0.00,,,0.00,VWS V14.01,2013-08-26 09:18:00,
2013-08-26 05:20:00,63.7,52.1,30.19,WNW,299,3.1,6.3,66,0.00,,,0.00,VWS V14.01,2013-08-26 09:20:00,
2013-08-26 05:23:00,63.7,52.1,30.19,WNW,290,2.7,5.4,66,0.00,,,0.00,VWS V14.01,2013-08-26 09:23:00,
2013-08-26 05:25:00,63.7,52.1,30.19,WNW,283,2.2,5.4,66,0.00,,,0.00,VWS V14.01,2013-08-26 09:25:00,
2013-08-26 05:28:00,63.7,52.1,30.19,SW,223,2.7,5.8,66,0.00,,,0.00,VWS V14.01,2013-08-26 09:28:00,
2013-08-26 05:30:00,63.7,52.1,30.19,WNW,282,3.6,5.8,66,0.00,,,0.00,VWS V14.01,2013-08-26 09:30:00,
2013-08-26 05:33:00,63.5,52.0,30.19,West,259,3.1,5.4,66,0.00,,,0.00,VWS V14.01,2013-08-26 09:33:00,
2013-08-26 05:35:00,63.5,52.0,30.19,West,259,3.1,5.4,66,0.00,,,0.00,VWS V14.01,2013-08-26 09:35:00,
2013-08-26 05:38:00,63.5,52.0,30.19,West,275,2.7,8.3,66,0.00,,,0.00,VWS V14.01,2013-08-26 09:38:00,
2013-08-26 05:40:00,63.5,52.0,30.19,SW,232,2.7,8.3,66,0.00,,,0.00,VWS V14.01,2013-08-26 09:40:00,
2013-08-26 05:43:00,63.5,52.4,30.19,WSW,245,2.7,5.8,67,0.00,,,0.00,VWS V14.01,2013-08-26 09:43:00,
2013-08-26 05:45:00,63.5,52.4,30.19,WSW,254,6.3,6.3,67,0.00,,,0.00,VWS V14.01,2013-08-26 09:45:00,
2013-08-26 05:49:00,63.3,52.2,30.19,West,274,2.7,6.3,67,0.00,,,0.00,VWS V14.01,2013-08-26 09:49:00,
2013-08-26 05:50:00,63.3,52.2,30.19,West,274,2.7,6.3,67,0.00,,,0.00,VWS V14.01,2013-08-26 09:50:00,
2013-08-26 05:54:00,63.3,52.2,30.19,West,267,3.6,6.3,67,0.00,,,0.00,VWS V14.01,2013-08-26 09:54:00,
2013-08-26 05:55:00,63.3,52.2,30.19,West,267,3.6,6.3,67,0.00,,,0.00,VWS V14.01,2013-08-26 09:55:00,
2013-08-26 05:59:00,63.3,52.2,30.19,WNW,283,2.2,3.1,67,0.00,,,0.00,VWS V14.01,2013-08-26 09:59:00,
2013-08-26 06:00:00,63.3,52.2,30.19,WNW,283,3.1,3.6,67,0.00,,,0.00,VWS V14.01,2013-08-26 10:00:00,
2013-08-26 06:04:00,63.3,52.2,30.19,WNW,289,2.7,2.7,67,0.00,,,0.00,VWS V14.01,2013-08-26 10:04:00,
2013-08-26 06:05:00,63.3,52.2,30.19,WNW,289,2.7,7.2,67,0.00,,,0.00,VWS V14.01,2013-08-26 10:05:00,
2013-08-26 06:09:00,63.3,52.2,30.19,SW,234,4.0,6.3,67,0.00,,,0.00,VWS V14.01,2013-08-26 10:09:00,
2013-08-26 06:10:00,63.3,52.2,30.19,SW,234,4.0,6.3,67,0.00,,,0.00,VWS V14.01,2013-08-26 10:10:00,
2013-08-26 06:14:00,63.3,52.2,30.19,SSE,153,3.1,3.1,67,0.00,,,0.00,VWS V14.01,2013-08-26 10:14:00,
2013-08-26 06:15:00,63.3,52.2,30.19,SSE,153,3.1,8.1,67,0.00,,,0.00,VWS V14.01,2013-08-26 10:15:00,
2013-08-26 06:19:00,63.3,52.2,30.19,WSW,256,4.9,5.4,67,0.00,,,0.00,VWS V14.01,2013-08-26 10:19:00,
2013-08-26 06:20:00,63.3,52.2,30.19,SW,231,5.4,5.8,67,0.00,,,0.00,VWS V14.01,2013-08-26 10:20:00,
2013-08-26 06:24:00,63.3,52.2,30.19,West,260,2.7,2.7,67,0.00,,,0.00,VWS V14.01,2013-08-26 10:24:00,
2013-08-26 06:25:00,63.3,52.2,30.19,WSW,257,2.2,6.3,67,0.00,,,0.00,VWS V14.01,2013-08-26 10:25:00,
2013-08-26 06:29:00,63.3,52.2,30.19,West,274,7.6,7.6,67,0.00,,,0.00,VWS V14.01,2013-08-26 10:29:00,
2013-08-26 06:30:00,63.3,52.2,30.19,WSW,240,3.1,5.8,67,0.00,,,0.00,VWS V14.01,2013-08-26 10:30:00,
2013-08-26 06:34:00,63.3,52.2,30.19,WSW,245,3.1,3.1,67,0.00,,,0.00,VWS V14.01,2013-08-26 10:34:00,
2013-08-26 06:35:00,63.3,52.2,30.19,WSW,258,2.7,7.6,67,0.00,,,0.00,VWS V14.01,2013-08-26 10:35:00,
2013-08-26 06:39:00,63.3,52.2,30.19,SSW,199,3.1,4.0,67,0.00,,,0.00,VWS V14.01,2013-08-26 10:39:00,
2013-08-26 06:40:00,63.3,52.2,30.19,WNW,286,4.0,7.2,67,0.00,,,0.00,VWS V14.01,2013-08-26 10:40:00,
2013-08-26 06:44:00,63.3,52.2,30.19,WNW,292,4.0,5.8,67,0.00,,,0.00,VWS V14.01,2013-08-26 10:44:00,
2013-08-26 06:45:00,63.3,52.2,30.19,SW,234,2.7,4.0,67,0.00,,,0.00,VWS V14.01,2013-08-26 10:45:00,
2013-08-26 06:49:00,63.3,52.2,30.19,WSW,258,2.7,5.4,67,0.00,,,0.00,VWS V14.01,2013-08-26 10:49:00,
2013-08-26 06:50:00,63.3,52.2,30.19,West,273,2.7,6.3,67,0.00,,,0.00,VWS V14.01,2013-08-26 10:50:00,
2013-08-26 06:55:00,63.3,52.2,30.19,West,265,5.4,5.4,67,0.00,,,0.00,VWS V14.01,2013-08-26 10:55:00,
2013-08-26 07:00:00,63.3,52.2,30.19,West,270,3.6,7.2,67,0.00,,,0.00,VWS V14.01,2013-08-26 11:00:00,
2013-08-26 07:05:00,63.3,52.2,30.19,West,262,5.4,5.4,67,0.00,,,0.00,VWS V14.01,2013-08-26 11:05:00,
2013-08-26 07:10:00,63.3,52.6,30.19,WSW,250,0.0,3.6,68,0.00,,,0.00,VWS V14.01,2013-08-26 11:10:00,
2013-08-26 07:15:00,63.3,52.6,30.19,West,273,3.1,4.0,68,0.00,,,0.00,VWS V14.01,2013-08-26 11:15:00,
2013-08-26 07:20:00,63.3,52.6,30.19,WSW,257,2.7,3.6,68,0.00,,,0.00,VWS V14.01,2013-08-26 11:20:00,
2013-08-26 07:25:00,63.3,52.6,30.19,West,270,5.8,6.3,68,0.00,,,0.00,VWS V14.01,2013-08-26 11:25:00,
2013-08-26 07:30:00,63.3,52.6,30.16,West,269,6.3,6.3,68,0.00,,,0.00,VWS V14.01,2013-08-26 11:30:00,
2013-08-26 07:35:00,63.3,52.6,30.16,West,265,3.6,6.3,68,0.00,,,0.00,VWS V14.01,2013-08-26 11:35:00,
2013-08-26 07:40:00,63.5,52.8,30.16,West,267,4.0,6.3,68,0.00,,,0.00,VWS V14.01,2013-08-26 11:40:00,
2013-08-26 07:41:00,63.5,52.8,30.16,WSW,255,3.6,5.4,68,0.00,,,0.00,VWS V14.01,2013-08-26 11:41:00,
2013-08-26 07:45:00,63.5,52.8,30.16,West,263,2.7,5.4,68,0.00,,,0.00,VWS V14.01,2013-08-26 11:45:00,
2013-08-26 07:46:00,63.5,52.8,30.16,WSW,252,3.1,5.4,68,0.00,,,0.00,VWS V14.01,2013-08-26 11:46:00,
2013-08-26 07:50:00,63.5,52.8,30.16,WSW,252,3.1,6.3,68,0.00,,,0.00,VWS V14.01,2013-08-26 11:50:00,
2013-08-26 07:51:00,63.5,52.8,30.16,WSW,249,3.1,5.8,68,0.00,,,0.00,VWS V14.01,2013-08-26 11:51:00,
2013-08-26 07:55:00,63.5,52.8,30.16,West,276,8.3,8.3,68,0.00,,,0.00,VWS V14.01,2013-08-26 11:55:00,
2013-08-26 07:56:00,63.5,52.8,30.16,West,261,4.0,8.3,68,0.00,,,0.00,VWS V14.01,2013-08-26 11:56:00,
2013-08-26 08:00:00,63.5,52.8,30.16,SW,224,3.1,8.3,68,0.00,,,0.00,VWS V14.01,2013-08-26 12:00:00,
2013-08-26 08:01:00,63.5,52.8,30.16,SSW,213,7.6,11.0,68,0.00,,,0.00,VWS V14.01,2013-08-26 12:01:00,
2013-08-26 08:05:00,63.5,52.8,30.16,West,279,5.4,11.0,68,0.00,,,0.00,VWS V14.01,2013-08-26 12:05:00,
2013-08-26 08:06:00,63.5,52.8,30.16,WSW,253,2.7,5.8,68,0.00,,,0.00,VWS V14.01,2013-08-26 12:06:00,
2013-08-26 08:10:00,63.5,52.8,30.16,West,269,3.1,7.2,68,0.00,,,0.00,VWS V14.01,2013-08-26 12:10:00,
2013-08-26 08:11:00,63.5,52.8,30.16,West,260,3.1,5.4,68,0.00,,,0.00,VWS V14.01,2013-08-26 12:11:00,
2013-08-26 08:15:00,63.5,52.8,30.16,SW,226,3.1,7.6,68,0.00,,,0.00,VWS V14.01,2013-08-26 12:15:00,
2013-08-26 08:16:00,63.5,53.2,30.16,WSW,245,5.8,9.6,69,0.00,,,0.00,VWS V14.01,2013-08-26 12:16:00,
2013-08-26 08:20:00,63.5,53.2,30.16,West,266,5.4,9.6,69,0.00,,,0.00,VWS V14.01,2013-08-26 12:20:00,
2013-08-26 08:21:00,63.5,53.2,30.16,WSW,257,3.1,6.3,69,0.00,,,0.00,VWS V14.01,2013-08-26 12:21:00,
2013-08-26 08:25:00,63.5,53.2,30.16,West,266,4.0,7.6,69,0.00,,,0.00,VWS V14.01,2013-08-26 12:25:00,
2013-08-26 08:26:00,63.5,53.2,30.16,WSW,246,5.4,5.8,69,0.00,,,0.00,VWS V14.01,2013-08-26 12:26:00,
2013-08-26 08:30:00,63.7,53.3,30.16,West,273,2.7,8.1,69,0.00,,,0.00,VWS V14.01,2013-08-26 12:30:00,
2013-08-26 08:31:00,63.7,53.3,30.16,West,261,2.7,3.6,69,0.00,,,0.00,VWS V14.01,2013-08-26 12:31:00,
2013-08-26 08:35:00,63.7,53.3,30.16,WSW,256,3.6,8.3,69,0.00,,,0.00,VWS V14.01,2013-08-26 12:35:00,
2013-08-26 08:36:00,63.7,53.3,30.16,SW,228,4.0,4.9,69,0.00,,,0.00,VWS V14.01,2013-08-26 12:36:00,
2013-08-26 08:40:00,63.7,53.3,30.16,WSW,244,3.1,5.4,69,0.00,,,0.00,VWS V14.01,2013-08-26 12:40:00,
2013-08-26 08:42:00,63.7,53.3,30.16,West,264,8.3,8.3,69,0.00,,,0.00,VWS V14.01,2013-08-26 12:42:00,
2013-08-26 08:45:00,63.7,53.3,30.16,WNW,295,4.9,8.3,69,0.00,,,0.00,VWS V14.01,2013-08-26 12:45:00,
2013-08-26 08:47:00,63.9,53.5,30.16,WSW,249,2.7,5.8,69,0.00,,,0.00,VWS V14.01,2013-08-26 12:47:00,
2013-08-26 08:50:00,63.9,53.5,30.16,WSW,256,6.3,6.3,69,0.00,,,0.00,VWS V14.01,2013-08-26 12:50:00,
2013-08-26 08:52:00,64.2,53.8,30.16,West,279,2.2,6.3,69,0.00,,,0.00,VWS V14.01,2013-08-26 12:52:00,
2013-08-26 08:55:00,64.4,54.0,30.16,West,269,3.6,8.3,69,0.00,,,0.00,VWS V14.01,2013-08-26 12:55:00,
2013-08-26 08:57:00,64.9,54.5,30.16,West,281,2.7,5.4,69,0.00,,,0.00,VWS V14.01,2013-08-26 12:57:00,
2013-08-26 09:00:00,65.5,55.0,30.16,SW,217,10.1,10.1,69,0.00,,,0.00,VWS V14.01,2013-08-26 13:00:00,
2013-08-26 09:02:00,66.2,55.3,30.16,West,265,4.0,10.1,68,0.00,,,0.00,VWS V14.01,2013-08-26 13:02:00,
2013-08-26 09:05:00,66.6,55.7,30.16,West,268,3.6,10.1,68,0.00,,,0.00,VWS V14.01,2013-08-26 13:05:00,
2013-08-26 09:07:00,66.7,55.8,30.16,WSW,248,2.7,3.6,68,0.00,,,0.00,VWS V14.01,2013-08-26 13:07:00,
2013-08-26 09:10:00,66.9,56.0,30.16,WNW,285,6.3,7.6,68,0.00,,,0.00,VWS V14.01,2013-08-26 13:10:00,
2013-08-26 09:12:00,66.9,55.6,30.16,WSW,249,4.0,6.3,67,0.00,,,0.00,VWS V14.01,2013-08-26 13:12:00,
2013-08-26 09:15:00,66.9,55.6,30.16,WSW,258,7.6,7.6,67,0.00,,,0.00,VWS V14.01,2013-08-26 13:15:00,
2013-08-26 09:17:00,66.9,55.6,30.16,West,276,2.7,7.6,67,0.00,,,0.00,VWS V14.01,2013-08-26 13:17:00,
2013-08-26 09:20:00,66.7,55.5,30.16,West,278,0.0,7.6,67,0.00,,,0.00,VWS V14.01,2013-08-26 13:20:00,
2013-08-26 09:22:00,66.7,55.5,30.16,WSW,238,2.2,4.9,67,0.00,,,0.00,VWS V14.01,2013-08-26 13:22:00,
2013-08-26 09:25:00,66.6,55.3,30.16,WSW,237,3.6,10.5,67,0.00,,,0.00,VWS V14.01,2013-08-26 13:25:00,
2013-08-26 09:27:00,66.4,55.1,30.16,WSW,239,4.0,4.0,67,0.00,,,0.00,VWS V14.01,2013-08-26 13:27:00,
2013-08-26 09:30:00,66.2,54.9,30.13,SW,223,2.7,5.8,67,0.00,,,0.00,VWS V14.01,2013-08-26 13:30:00,
2013-08-26 09:32:00,66.2,54.9,30.13,WSW,252,11.0,11.0,67,0.00,,,0.00,VWS V14.01,2013-08-26 13:32:00,
2013-08-26 09:35:00,66.0,54.8,30.13,WNW,291,3.1,11.0,67,0.00,,,0.00,VWS V14.01,2013-08-26 13:35:00,
2013-08-26 09:37:00,66.2,54.9,30.13,SW,224,3.1,5.8,67,0.00,,,0.00,VWS V14.01,2013-08-26 13:37:00,
2013-08-26 09:40:00,66.2,54.9,30.13,WSW,238,2.7,6.3,67,0.00,,,0.00,VWS V14.01,2013-08-26 13:40:00,
2013-08-26 09:42:00,66.4,55.5,30.13,SW,232,3.6,3.6,68,0.00,,,0.00,VWS V14.01,2013-08-26 13:42:00,
2013-08-26 09:45:00,66.6,55.7,30.13,West,272,3.6,5.8,68,0.00,,,0.00,VWS V14.01,2013-08-26 13:45:00,
2013-08-26 09:47:00,66.7,55.8,30.13,West,275,3.1,6.7,68,0.00,,,0.00,VWS V14.01,2013-08-26 13:47:00,
2013-08-26 09:50:00,67.1,56.2,30.13,West,272,4.5,6.7,68,0.00,,,0.00,VWS V14.01,2013-08-26 13:50:00,
2013-08-26 09:52:00,67.3,56.4,30.13,West,259,3.6,7.6,68,0.00,,,0.00,VWS V14.01,2013-08-26 13:52:00,
2013-08-26 09:55:00,67.3,56.4,30.13,WSW,248,4.0,7.6,68,0.00,,,0.00,VWS V14.01,2013-08-26 13:55:00,
2013-08-26 09:57:00,67.5,56.5,30.13,WSW,240,3.6,10.5,68,0.00,,,0.00,VWS V14.01,2013-08-26 13:57:00,
2013-08-26 10:00:00,67.5,56.5,30.16,West,264,2.7,10.5,68,0.00,,,0.00,VWS V14.01,2013-08-26 14:00:00,
2013-08-26 10:02:00,67.5,56.5,30.16,WSW,237,0.0,8.3,68,0.00,,,0.00,VWS V14.01,2013-08-26 14:02:00,
2013-08-26 10:05:00,67.5,56.5,30.16,West,279,3.1,8.3,68,0.00,,,0.00,VWS V14.01,2013-08-26 14:05:00,
2013-08-26 10:07:00,67.5,56.5,30.16,SSW,211,4.0,4.0,68,0.00,,,0.00,VWS V14.01,2013-08-26 14:07:00,
2013-08-26 10:10:00,67.5,56.5,30.16,WNW,288,2.7,4.9,68,0.00,,,0.00,VWS V14.01,2013-08-26 14:10:00,
2013-08-26 10:13:00,67.5,56.5,30.16,SW,229,3.1,4.9,68,0.00,,,0.00,VWS V14.01,2013-08-26 14:13:00,
2013-08-26 10:15:00,67.5,56.5,30.16,West,272,3.6,4.9,68,0.00,,,0.00,VWS V14.01,2013-08-26 14:15:00,
2013-08-26 10:18:00,67.6,56.7,30.16,NW,307,3.1,4.9,68,0.00,,,0.00,VWS V14.01,2013-08-26 14:18:00,
2013-08-26 10:20:00,67.6,56.7,30.16,WNW,284,3.1,4.9,68,0.00,,,0.00,VWS V14.01,2013-08-26 14:20:00,
2013-08-26 10:23:00,68.0,57.1,30.16,WSW,252,0.0,3.6,68,0.00,,,0.00,VWS V14.01,2013-08-26 14:23:00,
2013-08-26 10:25:00,68.2,57.2,30.16,SW,214,2.2,5.4,68,0.00,,,0.00,VWS V14.01,2013-08-26 14:25:00,
2013-08-26 10:28:00,68.5,57.6,30.16,West,271,0.0,3.6,68,0.00,,,0.00,VWS V14.01,2013-08-26 14:28:00,
2013-08-26 10:30:00,68.5,57.6,30.13,West,271,0.0,3.6,68,0.00,,,0.00,VWS V14.01,2013-08-26 14:30:00,
2013-08-26 10:33:00,68.9,57.9,30.13,WNW,302,0.0,6.3,68,0.00,,,0.00,VWS V14.01,2013-08-26 14:33:00,
2013-08-26 10:35:00,68.9,57.9,30.13,WNW,302,0.0,6.3,68,0.00,,,0.00,VWS V14.01,2013-08-26 14:35:00,
2013-08-26 10:38:00,69.1,58.1,30.13,SW,236,2.7,5.4,68,0.00,,,0.00,VWS V14.01,2013-08-26 14:38:00,
2013-08-26 10:40:00,69.1,58.1,30.13,SW,236,0.0,5.4,68,0.00,,,0.00,VWS V14.01,2013-08-26 14:40:00,
2013-08-26 10:43:00,69.3,58.3,30.13,WSW,258,0.0,4.0,68,0.00,,,0.00,VWS V14.01,2013-08-26 14:43:00,
2013-08-26 10:45:00,69.3,58.3,30.13,WSW,258,2.7,4.0,68,0.00,,,0.00,VWS V14.01,2013-08-26 14:45:00,
2013-08-26 10:48:00,69.3,58.3,30.13,West,276,4.0,5.4,68,0.00,,,0.00,VWS V14.01,2013-08-26 14:48:00,
2013-08-26 10:50:00,69.3,58.3,30.13,West,280,3.1,5.4,68,0.00,,,0.00,VWS V14.01,2013-08-26 14:50:00,
2013-08-26 10:53:00,69.4,58.4,30.13,WNW,285,0.0,5.8,68,0.00,,,0.00,VWS V14.01,2013-08-26 14:53:00,
2013-08-26 10:55:00,69.4,58.4,30.13,West,271,4.0,5.8,68,0.00,,,0.00,VWS V14.01,2013-08-26 14:55:00,
2013-08-26 10:58:00,69.3,58.3,30.13,West,270,2.7,5.8,68,0.00,,,0.00,VWS V14.01,2013-08-26 14:58:00,
2013-08-26 11:00:00,69.3,58.3,30.13,WNW,288,0.0,5.8,68,0.00,,,0.00,VWS V14.01,2013-08-26 15:00:00,
2013-08-26 11:03:00,69.3,58.3,30.13,WNW,297,0.0,5.8,68,0.00,,,0.00,VWS V14.01,2013-08-26 15:03:00,
2013-08-26 11:05:00,69.3,58.3,30.13,West,259,2.7,5.8,68,0.00,,,0.00,VWS V14.01,2013-08-26 15:05:00,
2013-08-26 11:08:00,69.3,57.8,30.13,West,274,2.7,4.9,67,0.00,,,0.00,VWS V14.01,2013-08-26 15:08:00,
2013-08-26 11:10:00,69.3,57.8,30.13,West,267,4.0,4.9,67,0.00,,,0.00,VWS V14.01,2013-08-26 15:10:00,
2013-08-26 11:13:00,69.4,58.0,30.13,West,274,3.6,6.3,67,0.00,,,0.00,VWS V14.01,2013-08-26 15:13:00,
2013-08-26 11:15:00,69.4,58.0,30.13,West,265,4.9,6.3,67,0.00,,,0.00,VWS V14.01,2013-08-26 15:15:00,
2013-08-26 11:19:00,69.3,57.8,30.13,West,270,2.2,8.3,67,0.00,,,0.00,VWS V14.01,2013-08-26 15:19:00,
2013-08-26 11:20:00,69.3,57.8,30.13,West,270,2.2,8.3,67,0.00,,,0.00,VWS V14.01,2013-08-26 15:20:00,
2013-08-26 11:24:00,69.3,58.3,30.13,West,274,3.1,3.1,68,0.00,,,0.00,VWS V14.01,2013-08-26 15:24:00,
2013-08-26 11:25:00,69.3,58.3,30.13,West,274,0.0,3.1,68,0.00,,,0.00,VWS V14.01,2013-08-26 15:25:00,
2013-08-26 11:29:00,69.3,58.3,30.13,WSW,250,2.2,6.3,68,0.00,,,0.00,VWS V14.01,2013-08-26 15:29:00,
2013-08-26 11:30:00,69.3,58.3,30.13,WSW,250,2.2,6.3,68,0.00,,,0.00,VWS V14.01,2013-08-26 15:30:00,
2013-08-26 11:34:00,69.1,58.1,30.13,WNW,284,0.0,4.9,68,0.00,,,0.00,VWS V14.01,2013-08-26 15:34:00,
2013-08-26 11:35:00,69.1,58.1,30.13,WNW,284,0.0,4.9,68,0.00,,,0.00,VWS V14.01,2013-08-26 15:35:00,
2013-08-26 11:39:00,69.1,58.1,30.13,West,259,2.7,5.8,68,0.00,,,0.00,VWS V14.01,2013-08-26 15:39:00,
2013-08-26 11:40:00,69.1,58.1,30.13,West,259,2.2,5.8,68,0.00,,,0.00,VWS V14.01,2013-08-26 15:40:00,
2013-08-26 11:44:00,69.1,58.1,30.13,West,259,0.0,2.7,68,0.00,,,0.00,VWS V14.01,2013-08-26 15:44:00,
2013-08-26 11:45:00,69.1,58.1,30.13,West,259,0.0,2.7,68,0.00,,,0.00,VWS V14.01,2013-08-26 15:45:00,
2013-08-26 11:49:00,69.1,58.5,30.13,West,261,3.1,4.9,69,0.00,,,0.00,VWS V14.01,2013-08-26 15:49:00,
2013-08-26 11:50:00,69.1,58.5,30.13,West,261,3.1,4.9,69,0.00,,,0.00,VWS V14.01,2013-08-26 15:50:00,
2013-08-26 11:54:00,68.9,58.3,30.13,West,268,0.0,3.6,69,0.00,,,0.00,VWS V14.01,2013-08-26 15:54:00,
2013-08-26 11:55:00,68.9,58.3,30.13,West,268,0.0,3.6,69,0.00,,,0.00,VWS V14.01,2013-08-26 15:55:00,
2013-08-26 11:59:00,68.9,58.7,30.10,West,268,0.0,5.8,70,0.00,,,0.00,VWS V14.01,2013-08-26 15:59:00,
2013-08-26 12:00:00,68.9,58.7,30.10,West,268,0.0,5.8,70,0.00,,,0.00,VWS V14.01,2013-08-26 16:00:00,
2013-08-26 12:04:00,69.1,59.3,30.10,West,268,0.0,0.0,71,0.00,,,0.00,VWS V14.01,2013-08-26 16:04:00,
2013-08-26 12:05:00,69.1,59.3,30.10,West,268,0.0,0.0,71,0.00,,,0.00,VWS V14.01,2013-08-26 16:05:00,
2013-08-26 12:09:00,69.4,59.6,30.10,West,273,2.7,2.7,71,0.00,,,0.00,VWS V14.01,2013-08-26 16:09:00,
2013-08-26 12:10:00,69.4,59.6,30.10,West,274,0.0,3.6,71,0.00,,,0.00,VWS V14.01,2013-08-26 16:10:00,
2013-08-26 12:14:00,69.6,59.8,30.10,West,265,3.1,6.3,71,0.00,,,0.00,VWS V14.01,2013-08-26 16:14:00,
2013-08-26 12:15:00,69.6,59.8,30.10,West,265,3.1,6.3,71,0.00,,,0.00,VWS V14.01,2013-08-26 16:15:00,
2013-08-26 12:19:00,70.3,60.1,30.10,WNW,284,3.6,4.5,70,0.00,,,0.00,VWS V14.01,2013-08-26 16:19:00,
2013-08-26 12:20:00,70.2,59.9,30.10,WNW,285,4.5,4.9,70,0.00,,,0.00,VWS V14.01,2013-08-26 16:20:00,
2013-08-26 12:24:00,70.9,60.6,30.10,WSW,256,3.1,4.5,70,0.00,,,0.00,VWS V14.01,2013-08-26 16:24:00,
2013-08-26 12:25:00,70.9,60.6,30.10,WSW,256,3.1,4.5,70,0.00,,,0.00,VWS V14.01,2013-08-26 16:25:00,
2013-08-26 12:29:00,70.9,60.2,30.10,WSW,254,6.3,7.6,69,0.00,,,0.00,VWS V14.01,2013-08-26 16:29:00,
2013-08-26 12:30:00,70.9,60.2,30.10,West,267,4.0,8.7,69,0.00,,,0.00,VWS V14.01,2013-08-26 16:30:00,
2013-08-26 12:34:00,71.4,60.3,30.10,West,270,0.0,3.6,68,0.00,,,0.00,VWS V14.01,2013-08-26 16:34:00,
2013-08-26 12:35:00,71.4,60.3,30.10,WSW,238,2.7,7.6,68,0.00,,,0.00,VWS V14.01,2013-08-26 16:35:00,
2013-08-26 12:39:00,71.8,60.7,30.10,WNW,297,3.6,8.7,68,0.00,,,0.00,VWS V14.01,2013-08-26 16:39:00,
2013-08-26 12:40:00,71.8,60.7,30.10,WNW,292,4.0,5.4,68,0.00,,,0.00,VWS V14.01,2013-08-26 16:40:00,
2013-08-26 12:44:00,72.3,60.8,30.10,SSW,192,2.7,5.4,67,0.00,,,0.00,VWS V14.01,2013-08-26 16:44:00,
2013-08-26 12:45:00,72.1,60.6,30.10,SW,229,0.0,8.7,67,0.00,,,0.00,VWS V14.01,2013-08-26 16:45:00,
2013-08-26 12:49:00,72.9,61.3,30.10,WSW,239,3.6,4.0,67,0.00,,,0.00,VWS V14.01,2013-08-26 16:49:00,
2013-08-26 12:50:00,72.7,61.1,30.10,South,187,2.7,6.3,67,0.00,,,0.00,VWS V14.01,2013-08-26 16:50:00,
2013-08-26 12:54:00,73.2,61.6,30.10,WNW,288,6.3,6.3,67,0.00,,,0.00,VWS V14.01,2013-08-26 16:54:00,
2013-08-26 12:55:00,73.2,61.6,30.10,West,270,2.7,5.4,67,0.00,,,0.00,VWS V14.01,2013-08-26 16:55:00,
2013-08-26 12:59:00,73.8,61.7,30.10,SSW,202,2.2,7.6,66,0.00,,,0.00,VWS V14.01,2013-08-26 16:59:00,
2013-08-26 13:00:00,73.8,61.7,30.10,WSW,258,7.6,8.3,66,0.00,,,0.00,VWS V14.01,2013-08-26 17:00:00,
2013-08-26 13:05:00,74.5,62.0,30.10,West,261,2.7,4.9,65,0.00,,,0.00,VWS V14.01,2013-08-26 17:05:00,
2013-08-26 13:10:00,74.8,61.9,30.10,WNW,288,3.1,3.1,64,0.00,,,0.00,VWS V14.01,2013-08-26 17:10:00,
2013-08-26 13:15:00,75.4,61.9,30.07,West,264,2.7,6.7,63,0.00,,,0.00,VWS V14.01,2013-08-26 17:15:00,
2013-08-26 13:20:00,75.7,61.3,30.07,WSW,245,2.7,2.7,61,0.00,,,0.00,VWS V14.01,2013-08-26 17:20:00,
2013-08-26 13:25:00,76.3,62.3,30.07,West,278,2.7,3.1,62,0.00,,,0.00,VWS V14.01,2013-08-26 17:25:00,
2013-08-26 13:30:00,76.5,61.6,30.07,WSW,250,2.2,5.8,60,0.00,,,0.00,VWS V14.01,2013-08-26 17:30:00,
2013-08-26 13:35:00,76.1,61.2,30.07,WSW,253,2.7,5.8,60,0.00,,,0.00,VWS V14.01,2013-08-26 17:35:00,
2013-08-26 13:40:00,76.3,61.9,30.07,SW,227,0.0,2.7,61,0.00,,,0.00,VWS V14.01,2013-08-26 17:40:00,
2013-08-26 13:45:00,76.5,62.0,30.07,SW,230,3.6,3.6,61,0.00,,,0.00,VWS V14.01,2013-08-26 17:45:00,
2013-08-26 13:50:00,76.5,61.6,30.07,West,273,0.0,7.6,60,0.00,,,0.00,VWS V14.01,2013-08-26 17:50:00,
2013-08-26 13:55:00,76.3,61.4,30.07,WSW,248,3.6,8.7,60,0.00,,,0.00,VWS V14.01,2013-08-26 17:55:00,
2013-08-26 14:00:00,75.9,61.0,30.07,WSW,240,3.6,6.3,60,0.00,,,0.00,VWS V14.01,2013-08-26 18:00:00,
2013-08-26 14:05:00,75.4,61.0,30.07,West,263,2.7,5.4,61,0.00,,,0.00,VWS V14.01,2013-08-26 18:05:00,
2013-08-26 14:10:00,75.2,61.3,30.07,WSW,240,3.6,3.6,62,0.00,,,0.00,VWS V14.01,2013-08-26 18:10:00,
2013-08-26 14:15:00,75.0,61.1,30.04,WSW,250,2.7,5.8,62,0.00,,,0.00,VWS V14.01,2013-08-26 18:15:00,
2013-08-26 14:20:00,74.8,61.0,30.04,WNW,284,3.1,6.3,62,0.00,,,0.00,VWS V14.01,2013-08-26 18:20:00,
2013-08-26 14:25:00,74.8,61.0,30.04,WSW,242,4.0,6.3,62,0.00,,,0.00,VWS V14.01,2013-08-26 18:25:00,
2013-08-26 14:26:00,74.8,61.4,30.04,West,271,4.0,4.0,63,0.00,,,0.00,VWS V14.01,2013-08-26 18:26:00,
2013-08-26 14:30:00,74.8,61.4,30.04,WNW,298,2.7,4.9,63,0.00,,,0.00,VWS V14.01,2013-08-26 18:30:00,
2013-08-26 14:31:00,74.7,61.2,30.04,SW,232,3.1,3.1,63,0.00,,,0.00,VWS V14.01,2013-08-26 18:31:00,
2013-08-26 14:35:00,74.5,61.1,30.04,WSW,240,3.1,7.6,63,0.00,,,0.00,VWS V14.01,2013-08-26 18:35:00,
2013-08-26 14:36:00,74.3,60.9,30.04,SSW,199,2.7,3.6,63,0.00,,,0.00,VWS V14.01,2013-08-26 18:36:00,
2013-08-26 14:40:00,74.1,61.2,30.04,SSW,199,2.7,4.0,64,0.00,,,0.00,VWS V14.01,2013-08-26 18:40:00,
2013-08-26 14:41:00,74.1,61.2,30.04,SSW,199,0.0,3.1,64,0.00,,,0.00,VWS V14.01,2013-08-26 18:41:00,
2013-08-26 14:45:00,73.9,61.0,30.04,SSW,198,2.7,4.9,64,0.00,,,0.00,VWS V14.01,2013-08-26 18:45:00,
2013-08-26 14:46:00,73.9,61.4,30.04,SSW,205,3.1,3.1,65,0.00,,,0.00,VWS V14.01,2013-08-26 18:46:00,
2013-08-26 14:50:00,73.8,61.3,30.04,West,263,4.5,4.5,65,0.00,,,0.00,VWS V14.01,2013-08-26 18:50:00,
2013-08-26 14:51:00,73.6,61.1,30.04,West,275,3.6,4.5,65,0.00,,,0.00,VWS V14.01,2013-08-26 18:51:00,
2013-08-26 14:55:00,73.4,60.9,30.04,West,269,5.4,5.4,65,0.00,,,0.00,VWS V14.01,2013-08-26 18:55:00,
2013-08-26 14:56:00,73.4,61.4,30.04,WSW,246,0.0,5.4,66,0.00,,,0.00,VWS V14.01,2013-08-26 18:56:00,
2013-08-26 15:00:00,73.4,61.4,30.04,West,277,3.6,5.4,66,0.00,,,0.00,VWS V14.01,2013-08-26 19:00:00,
2013-08-26 15:01:00,73.2,61.2,30.04,WNW,291,4.0,6.3,66,0.00,,,0.00,VWS V14.01,2013-08-26 19:01:00,
2013-08-26 15:05:00,73.4,61.4,30.04,WSW,239,0.0,6.3,66,0.00,,,0.00,VWS V14.01,2013-08-26 19:05:00,
2013-08-26 15:06:00,73.4,61.4,30.04,West,265,2.7,4.0,66,0.00,,,0.00,VWS V14.01,2013-08-26 19:06:00,
2013-08-26 15:10:00,73.4,60.9,30.04,WSW,255,3.6,5.4,65,0.00,,,0.00,VWS V14.01,2013-08-26 19:10:00,
2013-08-26 15:11:00,73.6,61.1,30.04,WSW,255,0.0,3.6,65,0.00,,,0.00,VWS V14.01,2013-08-26 19:11:00,
2013-08-26 15:15:00,73.8,61.7,30.04,WSW,252,3.1,4.9,66,0.00,,,0.00,VWS V14.01,2013-08-26 19:15:00,
2013-08-26 15:16:00,73.8,61.7,30.04,West,265,3.6,4.9,66,0.00,,,0.00,VWS V14.01,2013-08-26 19:16:00,
2013-08-26 15:20:00,73.9,61.9,30.04,WNW,283,3.1,7.6,66,0.00,,,0.00,VWS V14.01,2013-08-26 19:20:00,
2013-08-26 15:21:00,73.9,61.4,30.04,West,280,0.0,5.4,65,0.00,,,0.00,VWS V14.01,2013-08-26 19:21:00,
2013-08-26 15:25:00,74.1,62.0,30.04,SW,230,2.7,5.4,66,0.00,,,0.00,VWS V14.01,2013-08-26 19:25:00,
2013-08-26 15:26:00,74.1,62.0,30.04,SW,228,5.8,5.8,66,0.00,,,0.00,VWS V14.01,2013-08-26 19:26:00,
2013-08-26 15:30:00,74.3,62.2,30.04,West,276,3.6,5.8,66,0.00,,,0.00,VWS V14.01,2013-08-26 19:30:00,
2013-08-26 15:31:00,74.3,62.2,30.04,West,274,0.0,4.9,66,0.00,,,0.00,VWS V14.01,2013-08-26 19:31:00,
2013-08-26 15:35:00,75.2,62.6,30.04,West,263,2.7,7.6,65,0.00,,,0.00,VWS V14.01,2013-08-26 19:35:00,
2013-08-26 15:36:00,75.4,62.8,30.04,West,275,6.3,8.3,65,0.00,,,0.00,VWS V14.01,2013-08-26 19:36:00,
2013-08-26 15:40:00,75.7,62.7,30.04,West,261,2.7,8.3,64,0.00,,,0.00,VWS V14.01,2013-08-26 19:40:00,
2013-08-26 15:41:00,75.9,62.9,30.04,SSW,210,5.4,5.4,64,0.00,,,0.00,VWS V14.01,2013-08-26 19:41:00,
2013-08-26 15:45:00,76.3,63.2,30.01,NW,312,3.1,5.4,64,0.00,,,0.00,VWS V14.01,2013-08-26 19:45:00,
2013-08-26 15:46:00,76.5,63.4,30.01,WSW,239,3.1,5.4,64,0.00,,,0.00,VWS V14.01,2013-08-26 19:46:00,
2013-08-26 15:50:00,76.6,63.6,30.01,NW,306,2.2,5.4,64,0.00,,,0.00,VWS V14.01,2013-08-26 19:50:00,
2013-08-26 15:51:00,76.6,63.6,30.01,SW,227,2.2,2.2,64,0.00,,,0.00,VWS V14.01,2013-08-26 19:51:00,
2013-08-26 15:55:00,76.5,62.9,30.01,WNW,296,3.1,8.1,63,0.00,,,0.00,VWS V14.01,2013-08-26 19:55:00,
2013-08-26 15:56:00,76.1,62.2,30.01,West,261,5.4,5.4,62,0.00,,,0.00,VWS V14.01,2013-08-26 19:56:00,
2013-08-26 16:00:00,76.3,62.3,30.01,WSW,250,0.0,5.4,62,0.00,,,0.00,VWS V14.01,2013-08-26 20:00:00,
2013-08-26 16:01:00,76.5,62.9,30.01,WSW,250,2.7,2.7,63,0.00,,,0.00,VWS V14.01,2013-08-26 20:01:00,
2013-08-26 16:05:00,76.8,63.3,30.01,West,263,5.8,5.8,63,0.00,,,0.00,VWS V14.01,2013-08-26 20:05:00,
2013-08-26 16:06:00,77.0,63.0,30.01,West,278,0.0,6.3,62,0.00,,,0.00,VWS V14.01,2013-08-26 20:06:00,
2013-08-26 16:10:00,77.4,63.3,30.01,SW,225,3.1,6.3,62,0.00,,,0.00,VWS V14.01,2013-08-26 20:10:00,
2013-08-26 16:11:00,77.4,63.3,30.01,West,271,3.1,4.9,62,0.00,,,0.00,VWS V14.01,2013-08-26 20:11:00,
2013-08-26 16:15:00,77.7,63.2,30.01,West,280,7.6,8.7,61,0.00,,,0.00,VWS V14.01,2013-08-26 20:15:00,
2013-08-26 16:16:00,77.7,63.2,30.01,WSW,237,2.7,7.6,61,0.00,,,0.00,VWS V14.01,2013-08-26 20:16:00,
2013-08-26 16:20:00,77.5,63.0,30.01,WSW,238,3.1,7.6,61,0.00,,,0.00,VWS V14.01,2013-08-26 20:20:00,
2013-08-26 16:21:00,77.5,63.0,30.01,WSW,239,4.0,5.8,61,0.00,,,0.00,VWS V14.01,2013-08-26 20:21:00,
2013-08-26 16:25:00,77.5,63.0,30.01,WSW,248,3.1,5.8,61,0.00,,,0.00,VWS V14.01,2013-08-26 20:25:00,
2013-08-26 16:26:00,77.4,62.9,30.01,SW,217,3.1,4.0,61,0.00,,,0.00,VWS V14.01,2013-08-26 20:26:00,
2013-08-26 16:30:00,77.5,63.0,30.01,WNW,297,3.6,5.8,61,0.00,,,0.00,VWS V14.01,2013-08-26 20:30:00,
2013-08-26 16:31:00,77.7,63.2,30.01,SSW,208,2.2,4.9,61,0.00,,,0.00,VWS V14.01,2013-08-26 20:31:00,
2013-08-26 16:35:00,77.9,63.4,30.01,West,279,0.0,4.9,61,0.00,,,0.00,VWS V14.01,2013-08-26 20:35:00,
2013-08-26 16:36:00,78.1,63.5,30.01,West,260,3.1,3.1,61,0.00,,,0.00,VWS V14.01,2013-08-26 20:36:00,
2013-08-26 16:40:00,78.3,63.7,30.01,WNW,291,2.7,8.3,61,0.00,,,0.00,VWS V14.01,2013-08-26 20:40:00,
2013-08-26 16:41:00,78.3,63.7,30.01,West,270,3.1,6.3,61,0.00,,,0.00,VWS V14.01,2013-08-26 20:41:00,
2013-08-26 16:45:00,78.4,63.9,30.01,WNW,288,6.3,8.7,61,0.00,,,0.00,VWS V14.01,2013-08-26 20:45:00,
2013-08-26 16:46:00,78.3,63.2,30.01,West,261,7.6,11.0,60,0.00,,,0.00,VWS V14.01,2013-08-26 20:46:00,
2013-08-26 16:50:00,78.3,63.2,30.01,West,262,5.4,11.0,60,0.00,,,0.00,VWS V14.01,2013-08-26 20:50:00,
2013-08-26 16:51:00,78.3,63.2,30.01,West,272,3.6,5.4,60,0.00,,,0.00,VWS V14.01,2013-08-26 20:51:00,
2013-08-26 16:55:00,78.3,63.2,30.01,West,264,6.7,8.3,60,0.00,,,0.00,VWS V14.01,2013-08-26 20:55:00,
2013-08-26 16:56:00,78.4,63.4,30.01,WNW,288,0.0,6.7,60,0.00,,,0.00,VWS V14.01,2013-08-26 20:56:00,
2013-08-26 17:00:00,78.4,63.9,29.98,WNW,302,2.7,8.1,61,0.00,,,0.00,VWS V14.01,2013-08-26 21:00:00,
2013-08-26 17:01:00,78.6,63.6,29.98,SW,234,5.4,7.6,60,0.00,,,0.00,VWS V14.01,2013-08-26 21:01:00,
2013-08-26 17:05:00,78.6,64.1,29.98,WNW,289,4.9,7.6,61,0.00,,,0.00,VWS V14.01,2013-08-26 21:05:00,
2013-08-26 17:06:00,78.6,63.6,29.98,WNW,295,4.0,7.6,60,0.00,,,0.00,VWS V14.01,2013-08-26 21:06:00,
2013-08-26 17:10:00,78.8,63.8,29.98,WSW,256,0.0,7.6,60,0.00,,,0.00,VWS V14.01,2013-08-26 21:10:00,
2013-08-26 17:12:00,78.8,63.8,29.98,WSW,252,2.2,5.8,60,0.00,,,0.00,VWS V14.01,2013-08-26 21:12:00,
2013-08-26 17:15:00,78.8,63.8,29.98,West,259,3.6,6.3,60,0.00,,,0.00,VWS V14.01,2013-08-26 21:15:00,
2013-08-26 17:17:00,78.6,64.1,29.98,SSW,206,4.0,6.7,61,0.00,,,0.00,VWS V14.01,2013-08-26 21:17:00,
2013-08-26 17:20:00,78.4,63.9,29.98,West,275,4.0,8.3,61,0.00,,,0.00,VWS V14.01,2013-08-26 21:20:00,
2013-08-26 17:22:00,78.1,63.5,29.98,West,269,0.0,4.0,61,0.00,,,0.00,VWS V14.01,2013-08-26 21:22:00,
2013-08-26 17:25:00,77.9,63.4,29.98,WSW,254,2.7,4.0,61,0.00,,,0.00,VWS V14.01,2013-08-26 21:25:00,
2013-08-26 17:27:00,77.7,63.7,29.98,SW,234,2.7,3.6,62,0.00,,,0.00,VWS V14.01,2013-08-26 21:27:00,
2013-08-26 17:30:00,77.5,63.5,29.98,WNW,295,5.8,8.7,62,0.00,,,0.00,VWS V14.01,2013-08-26 21:30:00,
2013-08-26 17:32:00,77.4,63.3,29.98,West,273,2.2,5.8,62,0.00,,,0.00,VWS V14.01,2013-08-26 21:32:00,
2013-08-26 17:35:00,77.2,63.2,29.98,NW,304,3.1,5.8,62,0.00,,,0.00,VWS V14.01,2013-08-26 21:35:00,
2013-08-26 17:37:00,77.2,63.2,29.98,WSW,256,3.6,3.6,62,0.00,,,0.00,VWS V14.01,2013-08-26 21:37:00,
2013-08-26 17:40:00,77.2,63.2,29.98,WSW,244,3.6,4.0,62,0.00,,,0.00,VWS V14.01,2013-08-26 21:40:00,
2013-08-26 17:42:00,77.0,63.0,29.98,West,268,3.1,5.8,62,0.00,,,0.00,VWS V14.01,2013-08-26 21:42:00,
2013-08-26 17:45:00,77.0,63.0,29.98,WSW,253,4.0,5.8,62,0.00,,,0.00,VWS V14.01,2013-08-26 21:45:00,
2013-08-26 17:47:00,76.8,63.3,29.98,WSW,251,2.2,5.8,63,0.00,,,0.00,VWS V14.01,2013-08-26 21:47:00,
2013-08-26 17:50:00,76.8,63.3,29.98,WNW,285,4.5,7.6,63,0.00,,,0.00,VWS V14.01,2013-08-26 21:50:00,
2013-08-26 17:52:00,76.8,63.3,29.98,West,280,0.0,6.3,63,0.00,,,0.00,VWS V14.01,2013-08-26 21:52:00,
2013-08-26 17:55:00,76.8,63.3,29.98,WNW,287,3.1,6.3,63,0.00,,,0.00,VWS V14.01,2013-08-26 21:55:00,
2013-08-26 17:57:00,76.8,63.3,29.98,West,268,2.7,3.1,63,0.00,,,0.00,VWS V14.01,2013-08-26 21:57:00,
2013-08-26 18:00:00,76.8,63.7,29.98,West,268,0.0,3.1,64,0.00,,,0.00,VWS V14.01,2013-08-26 22:00:00,
2013-08-26 18:02:00,76.8,63.7,29.98,West,272,3.6,3.6,64,0.00,,,0.00,VWS V14.01,2013-08-26 22:02:00,
2013-08-26 18:05:00,76.8,63.7,29.98,West,266,0.0,4.0,64,0.00,,,0.00,VWS V14.01,2013-08-26 22:05:00,
2013-08-26 18:08:00,76.8,63.7,29.98,West,273,0.0,4.0,64,0.00,,,0.00,VWS V14.01,2013-08-26 22:08:00,
2013-08-26 18:10:00,76.8,63.7,29.98,West,272,2.7,4.0,64,0.00,,,0.00,VWS V14.01,2013-08-26 22:10:00,
2013-08-26 18:13:00,76.8,63.7,29.98,West,272,0.0,2.7,64,0.00,,,0.00,VWS V14.01,2013-08-26 22:13:00,
2013-08-26 18:15:00,76.8,63.7,29.98,West,281,3.6,3.6,64,0.00,,,0.00,VWS V14.01,2013-08-26 22:15:00,
2013-08-26 18:18:00,76.6,64.0,29.98,West,264,3.6,7.6,65,0.00,,,0.00,VWS V14.01,2013-08-26 22:18:00,
2013-08-26 18:20:00,76.6,64.0,29.98,West,263,0.0,7.6,65,0.00,,,0.00,VWS V14.01,2013-08-26 22:20:00,
2013-08-26 18:23:00,76.5,63.8,29.98,West,263,0.0,0.0,65,0.00,,,0.00,VWS V14.01,2013-08-26 22:23:00,
2013-08-26 18:25:00,76.5,63.8,29.98,West,263,0.0,0.0,65,0.00,,,0.00,VWS V14.01,2013-08-26 22:25:00,
2013-08-26 18:28:00,76.1,63.9,29.98,West,263,0.0,0.0,66,0.00,,,0.00,VWS V14.01,2013-08-26 22:28:00,
2013-08-26 18:30:00,75.9,63.8,29.98,West,263,0.0,0.0,66,0.00,,,0.00,VWS V14.01,2013-08-26 22:30:00,
2013-08-26 18:33:00,75.6,63.8,29.98,West,263,0.0,2.2,67,0.00,,,0.00,VWS V14.01,2013-08-26 22:33:00,
2013-08-26 18:35:00,75.6,63.8,29.98,West,263,0.0,2.2,67,0.00,,,0.00,VWS V14.01,2013-08-26 22:35:00,
2013-08-26 18:38:00,75.2,63.9,29.98,West,260,0.0,3.6,68,0.00,,,0.00,VWS V14.01,2013-08-26 22:38:00,
2013-08-26 18:40:00,75.2,63.9,29.98,West,260,0.0,3.6,68,0.00,,,0.00,VWS V14.01,2013-08-26 22:40:00,
2013-08-26 18:43:00,75.0,64.2,29.98,West,260,0.0,0.0,69,0.00,,,0.00,VWS V14.01,2013-08-26 22:43:00,
2013-08-26 18:45:00,75.2,64.3,29.98,West,260,0.0,0.0,69,0.00,,,0.00,VWS V14.01,2013-08-26 22:45:00,
2013-08-26 18:48:00,75.0,64.2,29.98,West,260,0.0,0.0,69,0.00,,,0.00,VWS V14.01,2013-08-26 22:48:00,
2013-08-26 18:50:00,75.0,64.2,29.98,West,260,0.0,0.0,69,0.00,,,0.00,VWS V14.01,2013-08-26 22:50:00,
2013-08-26 18:53:00,74.7,64.2,29.98,West,260,0.0,0.0,70,0.00,,,0.00,VWS V14.01,2013-08-26 22:53:00,
2013-08-26 18:55:00,74.7,64.2,29.98,West,260,0.0,0.0,70,0.00,,,0.00,VWS V14.01,2013-08-26 22:55:00,
2013-08-26 18:59:00,74.7,64.6,29.98,West,260,0.0,0.0,71,0.00,,,0.00,VWS V14.01,2013-08-26 22:59:00,
2013-08-26 19:00:00,74.7,64.6,29.98,West,260,0.0,0.0,71,0.00,,,0.00,VWS V14.01,2013-08-26 23:00:00,
2013-08-26 19:04:00,74.7,64.6,29.98,West,260,0.0,0.0,71,0.00,,,0.00,VWS V14.01,2013-08-26 23:04:00,
2013-08-26 19:05:00,74.7,64.6,29.98,West,260,0.0,0.0,71,0.00,,,0.00,VWS V14.01,2013-08-26 23:05:00,
2013-08-26 19:09:00,74.7,64.6,29.98,West,260,0.0,0.0,71,0.00,,,0.00,VWS V14.01,2013-08-26 23:09:00,
2013-08-26 19:10:00,74.7,64.6,29.98,West,260,0.0,0.0,71,0.00,,,0.00,VWS V14.01,2013-08-26 23:10:00,
2013-08-26 19:14:00,74.7,64.6,29.98,West,260,0.0,0.0,71,0.00,,,0.00,VWS V14.01,2013-08-26 23:14:00,
2013-08-26 19:15:00,74.7,64.6,29.98,West,260,0.0,0.0,71,0.00,,,0.00,VWS V14.01,2013-08-26 23:15:00,
2013-08-26 19:19:00,74.5,64.5,29.98,West,260,0.0,0.0,71,0.00,,,0.00,VWS V14.01,2013-08-26 23:19:00,
2013-08-26 19:20:00,74.5,64.5,29.98,West,260,0.0,0.0,71,0.00,,,0.00,VWS V14.01,2013-08-26 23:20:00,
2013-08-26 19:24:00,74.5,64.5,29.98,West,260,0.0,0.0,71,0.00,,,0.00,VWS V14.01,2013-08-26 23:24:00,
2013-08-26 19:25:00,74.5,64.5,29.98,West,260,0.0,0.0,71,0.00,,,0.00,VWS V14.01,2013-08-26 23:25:00,
2013-08-26 19:29:00,74.3,64.7,29.98,West,260,0.0,0.0,72,0.00,,,0.00,VWS V14.01,2013-08-26 23:29:00,
2013-08-26 19:30:00,74.3,64.7,29.98,West,260,0.0,0.0,72,0.00,,,0.00,VWS V14.01,2013-08-26 23:30:00,
2013-08-26 19:34:00,74.1,64.5,29.98,West,260,0.0,0.0,72,0.00,,,0.00,VWS V14.01,2013-08-26 23:34:00,
2013-08-26 19:35:00,74.1,64.5,29.98,West,260,0.0,0.0,72,0.00,,,0.00,VWS V14.01,2013-08-26 23:35:00,
2013-08-26 19:39:00,73.9,64.3,29.98,West,260,0.0,0.0,72,0.00,,,0.00,VWS V14.01,2013-08-26 23:39:00,
2013-08-26 19:40:00,73.9,64.3,29.98,West,260,0.0,0.0,72,0.00,,,0.00,VWS V14.01,2013-08-26 23:40:00,
2013-08-26 19:44:00,73.9,64.8,29.98,West,260,0.0,0.0,73,0.00,,,0.00,VWS V14.01,2013-08-26 23:44:00,
2013-08-26 19:45:00,73.9,64.3,29.98,West,260,0.0,0.0,72,0.00,,,0.00,VWS V14.01,2013-08-26 23:45:00,
2013-08-26 19:49:00,73.8,64.6,29.98,West,260,0.0,0.0,73,0.00,,,0.00,VWS V14.01,2013-08-26 23:49:00,
2013-08-26 19:50:00,73.8,64.6,29.98,West,260,0.0,0.0,73,0.00,,,0.00,VWS V14.01,2013-08-26 23:50:00,
2013-08-26 19:54:00,73.6,64.4,29.98,West,260,0.0,0.0,73,0.00,,,0.00,VWS V14.01,2013-08-26 23:54:00,
2013-08-26 19:55:00,73.6,64.4,29.98,West,260,0.0,0.0,73,0.00,,,0.00,VWS V14.01,2013-08-26 23:55:00,
2013-08-26 19:59:00,73.6,64.4,29.98,West,260,0.0,0.0,73,0.00,,,0.00,VWS V14.01,2013-08-26 23:59:00,
2013-08-26 20:00:00,73.6,64.4,29.98,West,260,0.0,0.0,73,0.00,,,0.00,VWS V14.01,2013-08-27 00:00:00,
2013-08-26 20:04:00,73.4,64.6,29.98,West,260,0.0,0.0,74,0.00,,,0.00,VWS V14.01,2013-08-27 00:04:00,
2013-08-26 20:05:00,73.4,64.2,29.98,West,260,0.0,0.0,73,0.00,,,0.00,VWS V14.01,2013-08-27 00:05:00,
2013-08-26 20:09:00,73.2,64.8,29.98,West,260,0.0,0.0,75,0.00,,,0.00,VWS V14.01,2013-08-27 00:09:00,
2013-08-26 20:10:00,73.2,64.4,29.98,West,260,0.0,0.0,74,0.00,,,0.00,VWS V14.01,2013-08-27 00:10:00,
2013-08-26 20:15:00,73.0,64.7,29.98,West,260,0.0,0.0,75,0.00,,,0.00,VWS V14.01,2013-08-27 00:15:00,
2013-08-26 20:20:00,73.0,64.7,29.98,West,260,0.0,0.0,75,0.00,,,0.00,VWS V14.01,2013-08-27 00:20:00,
2013-08-26 20:25:00,72.9,64.5,29.98,West,260,0.0,0.0,75,0.00,,,0.00,VWS V14.01,2013-08-27 00:25:00,
2013-08-26 20:30:00,72.9,64.9,29.98,West,260,0.0,0.0,76,0.00,,,0.00,VWS V14.01,2013-08-27 00:30:00,
2013-08-26 20:35:00,72.9,64.9,29.98,West,260,0.0,0.0,76,0.00,,,0.00,VWS V14.01,2013-08-27 00:35:00,
2013-08-26 20:40:00,72.9,64.9,29.98,West,260,0.0,0.0,76,0.00,,,0.00,VWS V14.01,2013-08-27 00:40:00,
2013-08-26 20:45:00,72.7,64.7,29.98,West,260,0.0,0.0,76,0.00,,,0.00,VWS V14.01,2013-08-27 00:45:00,
2013-08-26 20:50:00,72.7,64.7,29.98,West,260,0.0,0.0,76,0.00,,,0.00,VWS V14.01,2013-08-27 00:50:00,
2013-08-26 20:55:00,72.5,64.5,29.98,West,260,0.0,0.0,76,0.00,,,0.00,VWS V14.01,2013-08-27 00:55:00,
2013-08-26 21:00:00,72.3,64.7,29.98,West,260,0.0,0.0,77,0.00,,,0.00,VWS V14.01,2013-08-27 01:00:00,
2013-08-26 21:05:00,72.1,64.5,29.98,West,260,0.0,0.0,77,0.00,,,0.00,VWS V14.01,2013-08-27 01:05:00,
2013-08-26 21:10:00,72.1,64.9,29.98,West,260,0.0,0.0,78,0.00,,,0.00,VWS V14.01,2013-08-27 01:10:00,
2013-08-26 21:15:00,72.1,64.9,29.98,WSW,255,0.0,0.0,78,0.00,,,0.00,VWS V14.01,2013-08-27 01:15:00,
2013-08-26 21:20:00,72.0,65.1,29.98,WSW,255,0.0,0.0,79,0.00,,,0.00,VWS V14.01,2013-08-27 01:20:00,
2013-08-26 21:25:00,71.8,64.9,29.98,WSW,255,0.0,0.0,79,0.00,,,0.00,VWS V14.01,2013-08-27 01:25:00,
2013-08-26 21:30:00,71.4,64.9,29.98,WSW,255,0.0,0.0,80,0.00,,,0.00,VWS V14.01,2013-08-27 01:30:00,
2013-08-26 21:35:00,71.1,64.9,29.98,WSW,255,0.0,0.0,81,0.00,,,0.00,VWS V14.01,2013-08-27 01:35:00,
2013-08-26 21:40:00,70.9,64.8,29.98,WSW,255,0.0,0.0,81,0.04,,,0.04,VWS V14.01,2013-08-27 01:40:00,
2013-08-26 21:45:00,70.9,65.1,29.98,WSW,255,0.0,0.0,82,0.04,,,0.04,VWS V14.01,2013-08-27 01:45:00,
2013-08-26 21:46:00,70.9,65.1,29.98,WSW,255,0.0,0.0,82,0.04,,,0.04,VWS V14.01,2013-08-27 01:46:00,
2013-08-26 21:50:00,70.9,65.5,29.98,WSW,255,0.0,0.0,83,0.04,,,0.04,VWS V14.01,2013-08-27 01:50:00,
2013-08-26 21:51:00,70.9,65.5,29.98,WSW,255,0.0,0.0,83,0.04,,,0.04,VWS V14.01,2013-08-27 01:51:00,
2013-08-26 21:55:00,70.9,65.8,29.98,WSW,255,0.0,0.0,84,0.04,,,0.04,VWS V14.01,2013-08-27 01:55:00,
2013-08-26 21:56:00,70.7,65.6,29.98,WSW,255,0.0,0.0,84,0.04,,,0.04,VWS V14.01,2013-08-27 01:56:00,
2013-08-26 22:00:00,70.7,65.6,29.98,WSW,255,0.0,0.0,84,0.04,,,0.04,VWS V14.01,2013-08-27 02:00:00,
2013-08-26 22:01:00,70.7,65.6,29.98,WSW,255,0.0,0.0,84,0.04,,,0.04,VWS V14.01,2013-08-27 02:01:00,
2013-08-26 22:05:00,70.7,66.0,29.98,WSW,255,0.0,0.0,85,0.04,,,0.04,VWS V14.01,2013-08-27 02:05:00,
2013-08-26 22:06:00,70.5,65.8,29.98,WSW,255,0.0,0.0,85,0.04,,,0.04,VWS V14.01,2013-08-27 02:06:00,
2013-08-26 22:10:00,70.5,65.8,29.98,WSW,255,0.0,0.0,85,0.04,,,0.04,VWS V14.01,2013-08-27 02:10:00,
2013-08-26 22:11:00,70.5,65.8,29.98,WSW,255,0.0,0.0,85,0.04,,,0.04,VWS V14.01,2013-08-27 02:11:00,
2013-08-26 22:15:00,70.5,65.8,29.98,WSW,255,0.0,0.0,85,0.08,,,0.08,VWS V14.01,2013-08-27 02:15:00,
2013-08-26 22:16:00,70.5,65.8,29.98,WSW,255,0.0,0.0,85,0.08,,,0.08,VWS V14.01,2013-08-27 02:16:00,
2013-08-26 22:20:00,70.5,66.1,29.98,WSW,255,0.0,0.0,86,0.08,,,0.08,VWS V14.01,2013-08-27 02:20:00,
2013-08-26 22:21:00,70.5,66.1,29.98,WSW,255,0.0,0.0,86,0.08,,,0.08,VWS V14.01,2013-08-27 02:21:00,
2013-08-26 22:25:00,70.3,66.0,29.98,WSW,255,0.0,0.0,86,0.08,,,0.08,VWS V14.01,2013-08-27 02:25:00,
2013-08-26 22:26:00,70.3,66.0,29.98,WSW,255,0.0,0.0,86,0.08,,,0.08,VWS V14.01,2013-08-27 02:26:00,
2013-08-26 22:30:00,70.3,66.0,29.95,WSW,255,0.0,0.0,86,0.08,,,0.08,VWS V14.01,2013-08-27 02:30:00,
2013-08-26 22:31:00,70.3,66.0,29.95,WSW,255,0.0,0.0,86,0.08,,,0.08,VWS V14.01,2013-08-27 02:31:00,
2013-08-26 22:35:00,70.2,65.8,29.95,WSW,255,0.0,0.0,86,0.08,,,0.08,VWS V14.01,2013-08-27 02:35:00,
2013-08-26 22:36:00,70.2,65.8,29.95,WSW,255,0.0,0.0,86,0.08,,,0.08,VWS V14.01,2013-08-27 02:36:00,
2013-08-26 22:40:00,70.2,66.1,29.95,WSW,255,0.0,0.0,87,0.08,,,0.08,VWS V14.01,2013-08-27 02:40:00,
2013-08-26 22:41:00,70.2,66.1,29.95,WSW,255,0.0,0.0,87,0.04,,,0.08,VWS V14.01,2013-08-27 02:41:00,
2013-08-26 22:45:00,70.2,66.1,29.95,WSW,255,0.0,0.0,87,0.04,,,0.08,VWS V14.01,2013-08-27 02:45:00,
2013-08-26 22:47:00,70.2,66.1,29.95,WSW,255,0.0,0.0,87,0.04,,,0.08,VWS V14.01,2013-08-27 02:47:00,
2013-08-26 22:50:00,70.0,65.9,29.95,WSW,255,0.0,0.0,87,0.04,,,0.08,VWS V14.01,2013-08-27 02:50:00,
2013-08-26 22:52:00,70.0,65.9,29.95,WSW,255,0.0,0.0,87,0.04,,,0.08,VWS V14.01,2013-08-27 02:52:00,
2013-08-26 22:55:00,70.0,65.9,29.95,WSW,255,0.0,0.0,87,0.04,,,0.08,VWS V14.01,2013-08-27 02:55:00,
2013-08-26 22:57:00,70.0,65.9,29.95,WSW,255,0.0,0.0,87,0.04,,,0.08,VWS V14.01,2013-08-27 02:57:00,
2013-08-26 23:00:00,70.0,65.9,29.95,WSW,255,0.0,0.0,87,0.04,,,0.08,VWS V14.01,2013-08-27 03:00:00,
2013-08-26 23:02:00,70.0,65.9,29.95,WSW,255,0.0,0.0,87,0.04,,,0.08,VWS V14.01,2013-08-27 03:02:00,
2013-08-26 23:05:00,69.8,66.1,29.95,WSW,255,0.0,0.0,88,0.04,,,0.08,VWS V14.01,2013-08-27 03:05:00,
2013-08-26 23:07:00,69.8,66.1,29.95,WSW,255,0.0,0.0,88,0.04,,,0.08,VWS V14.01,2013-08-27 03:07:00,
2013-08-26 23:10:00,69.8,66.1,29.95,WSW,255,0.0,0.0,88,0.04,,,0.08,VWS V14.01,2013-08-27 03:10:00,
2013-08-26 23:12:00,69.8,66.1,29.95,WSW,256,0.0,2.2,88,0.04,,,0.08,VWS V14.01,2013-08-27 03:12:00,
2013-08-26 23:15:00,69.8,66.1,29.95,WSW,250,0.0,3.6,88,0.04,,,0.08,VWS V14.01,2013-08-27 03:15:00,
2013-08-26 23:17:00,69.8,66.1,29.95,WSW,250,0.0,0.0,88,0.00,,,0.08,VWS V14.01,2013-08-27 03:17:00,
2013-08-26 23:20:00,69.8,66.1,29.95,WSW,250,0.0,0.0,88,0.00,,,0.08,VWS V14.01,2013-08-27 03:20:00,
2013-08-26 23:22:00,69.8,66.1,29.95,WSW,250,0.0,0.0,88,0.00,,,0.08,VWS V14.01,2013-08-27 03:22:00,
2013-08-26 23:25:00,69.6,65.9,29.95,WSW,250,0.0,0.0,88,0.00,,,0.08,VWS V14.01,2013-08-27 03:25:00,
2013-08-26 23:27:00,69.6,65.9,29.95,WSW,250,0.0,0.0,88,0.00,,,0.08,VWS V14.01,2013-08-27 03:27:00,
2013-08-26 23:30:00,69.6,65.9,29.95,WSW,250,0.0,0.0,88,0.00,,,0.08,VWS V14.01,2013-08-27 03:30:00,
2013-08-26 23:32:00,69.6,65.9,29.95,West,280,0.0,3.6,88,0.00,,,0.08,VWS V14.01,2013-08-27 03:32:00,
2013-08-26 23:35:00,69.6,66.2,29.95,West,280,0.0,3.6,89,0.00,,,0.08,VWS V14.01,2013-08-27 03:35:00,
2013-08-26 23:37:00,69.6,66.2,29.95,West,280,0.0,0.0,89,0.00,,,0.08,VWS V14.01,2013-08-27 03:37:00,
2013-08-26 23:40:00,69.4,66.1,29.95,West,280,0.0,0.0,89,0.00,,,0.08,VWS V14.01,2013-08-27 03:40:00,
2013-08-26 23:43:00,69.4,66.1,29.95,West,275,0.0,5.8,89,0.00,,,0.08,VWS V14.01,2013-08-27 03:43:00,
2013-08-26 23:45:00,69.4,66.1,29.95,West,275,0.0,5.8,89,0.00,,,0.08,VWS V14.01,2013-08-27 03:45:00,
2013-08-26 23:48:00,69.4,66.1,29.95,West,275,0.0,2.7,89,0.00,,,0.08,VWS V14.01,2013-08-27 03:48:00,
2013-08-26 23:50:00,69.4,66.1,29.95,West,275,0.0,2.7,89,0.00,,,0.08,VWS V14.01,2013-08-27 03:50:00,
2013-08-26 23:53:00,69.4,66.1,29.95,West,275,0.0,2.2,89,0.00,,,0.08,VWS V14.01,2013-08-27 03:53:00,
2013-08-26 23:55:00,69.4,66.1,29.95,West,275,0.0,2.2,89,0.00,,,0.08,VWS V14.01,2013-08-27 03:55:00,
2013-08-26 23:58:00,69.3,65.9,29.95,West,262,0.0,3.6,89,0.00,,,0.08,VWS V14.01,2013-08-27 03:58:00,